[Iaude] MPEC A46: 2024 AW [a=0.85,e=0.27,i=9.7,H=25.7]
    mpec at marsden.cfa.harvard.edu 
    mpec at marsden.cfa.harvard.edu
       
    Fri Jan  5 06:38:57 EST 2024
    
    
  
M.P.E.C. 2024-A46                               Issued 2024 January 5, 11:37 UT
     The Minor Planet Electronic Circulars contain information on unusual
         minor planets, routine data on comets and natural satellites,
         and occasional editorial announcements.  They are published
    on behalf of Division F of the International Astronomical Union by the
          Minor Planet Center, Smithsonian Astrophysical Observatory,
                          Cambridge, MA 02138, U.S.A.
			  
             Prepared using the Tamkin Foundation Computer Network
                              MPC at CFA.HARVARD.EDU
            URL https://www.minorplanetcenter.net/    ISSN 1523-6714
                                    2024 AW                                     
Observations:
     K24A00W*1C2024 01 03.46224309 16 56.964+40 12 32.29         20.20GVEA046G96
     K24A00W 1C2024 01 03.46750909 16 57.590+40 14 34.58         19.96GVEA046G96
     K24A00W 1C2024 01 03.47276609 16 58.228+40 16 38.35         19.50GVEA046G96
     K24A00W  C2024 01 03.49571909 17 00.318+40 25 23.05         19.1 GVEA046H01
     K24A00W  C2024 01 03.50134109 17 01.088+40 27 33.75         20.4 GVEA046H01
     K24A00W KC2024 01 03.51789809 17 03.434+40 33 59.39         20.0 GVEA046H01
     K24A00W KC2024 01 03.53693809 17 06.875+40 41 34.94         19.27GVEA046I52
     K24A00W KC2024 01 03.53762809 17 06.997+40 41 51.07         19.77GVEA046I52
     K24A00W KC2024 01 03.53831409 17 07.084+40 42 06.84         19.75GVEA046I52
     K24A00W KC2024 01 03.53872809 17 06.608+40 42 04.08         18.8 GVEA046H01
     K24A00W KC2024 01 03.53900309 17 07.192+40 42 23.11         19.62GVEA046I52
     K24A00W KB2024 01 04.27142 09 20 48.99 +45 51 46.4          19.6 GXEA046H36
     K24A00W KB2024 01 04.27525 09 20 49.78 +45 53 31.1          19.5 GXEA046H36
     K24A00W KB2024 01 04.27908 09 20 50.56 +45 55 15.2          19.4 GXEA046H36
     K24A00W IC2024 01 04.80792609 24 01.44 +49 57 52.6          19.0 GVEA046L01
     K24A00W hC2024 01 04.81015309 24 02.21 +49 58 58.3          19.3 GVEA046L01
     K24A00W hC2024 01 04.81238009 24 03.04 +50 00 04.3          19.4 GVEA046L01
     K24A00W KC2024 01 04.89889 09 24 35.28 +50 43 42.1          19.7 VZEA046M63
     K24A00W KC2024 01 04.90714 09 24 37.96 +50 47 50.3          19.9 VZEA046M63
     K24A00W KC2024 01 04.91531 09 24 40.51 +50 51 55.3          19.8 VZEA046M63
     K24A00W KC2024 01 05.27249509 27 10.97 +53 50 29.8          19.4 GVEA046H21
     K24A00W KC2024 01 05.27442609 27 11.64 +53 51 29.7          19.6 GVEA046H21
     K24A00W KC2024 01 05.27732009 27 12.65 +53 52 58.9          19.5 GVEA046H21
     K24A00W KC2024 01 05.27989209 27 13.53 +53 54 18.9          19.8 GVEA046H21
Observer details:
G96 Mt. Lemmon Survey.  Observer K. W. Wierzchos.  Measurers E. C. Beshore, D.
    Fay, J. B. Fazekas, D. C. Fuls, A. R. Gibbs, A. D. Grauer, H. Groeller, J.
    K. Hogan, R. A. Kowalski, S. M. Larson, G. J. Leonard, D. Rankin, R. L.
    Seaman, F. C. Shelly, K. W. Wierzchos.  1.5-m reflector + 10K CCD.
H01 Magdalena Ridge Observatory, Socorro.  Observers W. H. Ryan, E. V. Ryan.
    Measurer W. H. Ryan.  2.4-m f/8.9 Ritchey-Chretien + CCD.
H21 Astronomical Research Observatory, Westfield.  Observer R. Holmes.
    Measurers T. Linder, R. Holmes, L. Horn.  0.76-m f/3.0 astrograph + CCD.
H36 Sandlot Observatory, Scranton.  Observer G. Hug.  0.56-m f/4.8 reflector +
    CMO.
I52 Steward Observatory, Mt. Lemmon Station.  Observer R. A. Kowalski.
    Measurers E. C. Beshore, D. Fay, J. B. Fazekas, D. C. Fuls, A. R. Gibbs,
    A. D. Grauer, H. Groeller, J. K. Hogan, R. A. Kowalski, S. M. Larson, G.
    J. Leonard, D. Rankin, R. L. Seaman, F. C. Shelly, K. W. Wierzchos.  1.0-m
    prime focus + CCD.
L01 Visnjan Observatory, Tican.  Observers K. Korlevic, L. Poropat.  Measurer
    K. Korlevic.  1.0-m f/2.9 reflector + CCD.
M63 RPF Observatory, Gagliano del Capo.  Observer D. Licchelli.  0.30-m f/5.3
    reflector + CCD.
Orbital elements:
2024 AW                                                  Earth MOID = 0.0278 AU
Epoch 2023 Sept. 13.0 TT = JDT 2460200.5                Veres                   
M  95.71715              (2000.0)            P               Q                  
n   1.25720379     Peri.  149.18664     -0.37231349     +0.91293305             
a   0.8502218      Node    98.50443     -0.88224424     -0.29221821             
e   0.2738107      Incl.    9.72960     -0.28814537     -0.28488905             
P   0.78           H   25.75          G   0.15           U   7                  
Residuals in seconds of arc
240103 G96  0.0   0.2+    240103 I52  0.1-  0.1-    240104 L01  0.8-  0.4-
240103 G96  0.0   0.6-    240103 H01  0.1-  0.2-    240104 M63  0.1+  0.1-
240103 G96  0.0   0.4+    240103 I52  0.0   0.1+    240104 M63  0.4+  0.4+
240103 H01  0.1+  0.1+    240104 H36  0.4+  0.1+    240104 M63  0.1+  0.1+
240103 H01  0.1+  0.1-    240104 H36  0.4+  0.2+    240105 H21  0.2-  0.2+
240103 H01  0.1-  0.0     240104 H36  0.4+  0.3-    240105 H21  0.1-  0.2+
240103 I52  0.1-  0.1+    240104 L01  0.7+  0.4+    240105 H21  0.1+  0.3-
240103 I52  0.1+  0.1+    240104 L01  0.3-  0.1-    240105 H21  0.2+  0.1-
Ephemeris:
2024 AW                  a,e,i = 0.85, 0.27, 10                  q = 0.6174
Date    TT    R. A. (2000) Decl.     Delta      r    Elong.  Phase     V
2023 12 06    08 43 42.0 -02 10 53   0.1678  1.0731   117.4    54.6    24.0
...
2023 12 21    08 57 19.2 +04 20 24   0.09269 1.0478   131.8    44.4    22.4
...
2023 12 29    09 05 21.5 +16 49 19   0.05552 1.0282   142.8    35.3    21.0
...
2024 01 04    09 19 18.3 +43 52 42   0.03363 1.0106   143.8    35.1    19.9
2024 01 05    09 24 57.6 +51 33 02   0.03132 1.0075   139.9    38.9    19.8
2024 01 06    09 34 03.4 +60 12 36   0.02967 1.0043   134.3    44.5    19.8
...
2024 01 12    20 20 44.7 +66 51 20   0.03591 0.9836    89.2    88.7    21.6
...
2024 01 20    20 48 07.9 +39 07 29   0.06666 0.9527    60.3   116.2    24.3
...
2024 02 04    20 52 21.4 +23 10 38   0.1366  0.8852    39.9   134.4    27.3
M. P. C. Staff               (C) Copyright 2024 MPC           M.P.E.C. 2024-A46
    
    
More information about the Iaude
mailing list